{"data":{"norad_id":60145,"epoch":"2026-09-21T21:03:42.839424Z","epoch_age_seconds":62205,"freshness":"FRESH","line1":"1 60145U 24120L   26264.87757916 -.00000866  00000+0 -14485-4 0  9992","line2":"2 60145  53.1594 125.0918 0001304  86.4169 273.6982 15.34393439126463","mean_motion":15.34393439,"eccentricity":0.0001304,"inclination_deg":53.1594,"raan_deg":125.0918,"arg_perigee_deg":86.4169,"mean_anomaly_deg":273.6982,"bstar":-1.4485e-5,"rev_number":12646,"period_min":93.84815937029,"perigee_km":461.83069284104,"apogee_km":463.61478906148,"semimajor_km":6840.8597409513,"source":"CELESTRAK","updated_at":"2026-09-22T09:00:49.178292Z"}}